Home > Weather > Changchun > Past weeks

Flag for China Past Weather in Changchun, Jilin, China — Yesterday and Last 2 Weeks

Now
70 °F

Fog.


Feels Like: 70 °F
Forecast: 67 / 84 °F
Wind: No wind

Location: Changchun Airport

Current Time: Jul 31, 2016 at 1:04:19 AM

Latest Report: Jul 31, 2016 at 12:00 AM


Visibility: 3 mi

Pressure: 29.89 "Hg

Humidity: 88%

Dew Point: 66 °F

Location of ChangchunLocation

Past Weather in Changchun — Graph

°F

Changchun Temperature Yesterday

Maximum temperature yesterday: 86 °F (at 3:00 PM)
Minimum temperature yesterday: 70 °F (at 12:00 AM)
Average temperature yesterday: 77 °F

High & Low Weather Summary for the Past Weeks

 TemperatureHumidityPressure
High86 °F (Jul 19, 2:00 PM)94% (Jul 17, 2:00 AM)29.92 "Hg (Jul 17, 2:00 AM)
Low61 °F (Jul 18, 2:00 AM)48% (Jul 18, 1:00 PM)29.56 "Hg (Jul 23, 4:00 PM)
Average74 °F77%29.74 "Hg
* Reported Jul 15 11:00 PM — Jul 30 11:00 PM, Changchun, Weather by CustomWeather, © 2016

Note: Actual official high and low records may vary slightly from our data, if they occured in-between our weather recording intervals... More about our weather records

Advertising

Changchun Weather History for the Previous 24 Hours

Scroll right to see more
 ConditionsComfort  
Time TempWeatherWind HumidityBarometerVisibility
11:00 PM
Sat, Jul 30
73 °FClear.1 mph83%29.86 "Hg5 mi
10:00 PM72 °FClear.1 mph88%29.89 "Hg5 mi
9:00 PM75 °FClear.1 mph83%29.89 "Hg10 mi
8:00 PM75 °FClear.1 mph83%29.89 "Hg10 mi
7:00 PM81 °FSunny.1 mph66%29.86 "Hg10 mi
6:00 PM82 °FPassing clouds.3 mph62%29.83 "HgN/A
5:00 PM84 °FSunny.3 mph55%29.83 "Hg10 mi
4:00 PM86 °FPassing clouds.6 mph55%29.86 "HgN/A
3:00 PM86 °FPassing clouds.6 mph55%29.86 "HgN/A
2:00 PM84 °FScattered clouds.6 mph58%29.86 "HgN/A
1:00 PM84 °FScattered clouds.6 mph62%29.86 "HgN/A
12:00 PM84 °FScattered clouds.3 mph58%29.86 "HgN/A
11:00 AM84 °FScattered clouds.3 mph62%29.89 "HgN/A
10:00 AM82 °FScattered clouds.3 mph58%29.89 "HgN/A
9:00 AM79 °FScattered clouds.1 mph74%29.89 "HgN/A
8:00 AM79 °FClear.3 mph74%29.89 "Hg4 mi
7:00 AM75 °FFog.3 mph83%29.86 "Hg2 mi
6:00 AM72 °FFog.3 mph88%29.86 "Hg2 mi
5:00 AM70 °FFog.3 mph88%29.86 "Hg1 mi
4:00 AM70 °FFog.3 mph88%29.83 "Hg2 mi
3:00 AM70 °FFog.3 mph88%29.83 "Hg2 mi
2:00 AM70 °FClear.3 mph88%29.83 "Hg10 mi
1:00 AM70 °FClear.3 mph88%29.80 "Hg10 mi
Weather by CustomWeather, © 2016

See weather overviewHow to use our weather pages